{"data":{"norad_id":40485,"intl_designator":"2015-011D","name":"MMS 4","alt_names":[],"object_type":"PAYLOAD","status":"ACTIVE","operator":null,"country":"US","launch_date":"2015-03-13","launch_site_code":"AFETR","launch_vehicle":null,"mission":null,"orbit_class":"UNKNOWN","rcs_meters":2.1286,"size_class":null,"mass_kg":null,"dimensions":null,"purposes":["science"],"wikipedia_slug":null,"has_3d_model":false,"image_url":null,"decayed_at":null,"tle_current":{"epoch":"2026-09-20T06:00:02.000160Z","epoch_age_seconds":35947,"freshness":"FRESH","line1":"1 40485U 15011D   26263.25002315 -.00001960  00000+0  00000+0 0  9991","line2":"2 40485  72.8908 347.7150 8252043 169.4149 276.1067  0.28314037  1392","mean_motion":0.28314037,"eccentricity":0.8252043,"inclination_deg":72.8908,"raan_deg":347.715,"arg_perigee_deg":169.4149,"mean_anomaly_deg":276.1067,"bstar":0,"rev_number":139,"period_min":5085.8166216283,"perigee_km":10745.580557812,"apogee_km":172426.50704161,"semimajor_km":97964.18079971,"source":"CELESTRAK","updated_at":"2026-09-20T09:00:47.149406Z"}}}